Location: Colombes
(48.9188°N, 2.2540°E)
Time: 03:11:48
(UTC+00:00)

Daily predictions for brighter satellites

Satellite Brightness Start Highest point End
(mag) Time Altitude Azimuth Time Altitude Azimuth Time Altitude Azimuth
USA 215 4.0 03:20:47 10° E 03:25:43 46° ENE 03:25:43 46° ENE
Cosmos 1943 Rocket 2.7 04:06:38 55° ESE 04:06:51 56° ESE 04:12:23 10° NE
CZ-2C R/B 3.9 04:04:46 10° SE 04:09:47 38° ENE 04:13:24 17° N
Cosmos 1241 Rocket 4.5 04:10:33 72° SE 04:10:33 72° SE 04:16:04 10° SE
CENTAUR R/B 2.6 04:16:08 64° S 04:16:56 72° SE 04:24:02 10° NE
Cosmos 2297 3.8 04:21:06 65° SSE 04:21:43 71° ESE 04:27:27 10° NNE
NOSS 3-2 (A) 3.2 04:27:50 84° WNW 04:27:52 84° NW 04:34:30 10° NE
Cosmos 2278 Rocket 3.8 04:33:50 21° N 04:33:50 21° N 04:36:09 10° NNE
Envisat 4.0 04:30:23 10° NNE 04:35:17 46° E 04:40:09 10° S
NOSS 3-2 (C) 3.5 04:33:35 43° SSW 04:35:28 69° SE 04:41:55 10° NE
SKYMED 2 4.2 04:32:13 10° SSE 04:36:26 53° ENE 04:37:12 46° NE
Cosmos 2098 Rocket 4.4 04:38:35 10° SSE 04:42:16 40° E 04:46:51 10° NNE
Meteor 2-3 Rocket 3.6 04:37:03 10° S 04:42:43 90° W 04:48:30 10° NNE
Cosmos 968 Rocket 3.6 04:42:38 23° S 04:45:54 73° ESE 04:51:03 10° NNE
Landsat 5 4.3 04:41:43 10° SE 04:46:06 53° ENE 04:48:26 25° N
Genesis I 4.4 04:49:24 35° SSE 04:49:24 35° SSE 04:51:54 10° SSE
Cosmos 921 Rocket 3.0 04:50:35 80° SSE 04:50:35 80° SSE 04:54:48 10° SSE
DNEPR-1 R/B 4.1 04:53:14 50° NNW 04:54:22 68° NE 04:59:49 10° SE
Meteor 1-26 Rocket 4.2 04:53:50 34° NNW 04:56:27 68° W 05:02:11 10° S
Cosmos 1812 2.8 04:56:57 73° E 04:56:57 73° E 05:00:42 10° SSE
H-2A R/B 4.2 04:53:31 10° ESE 04:56:56 24° ENE 05:00:26 10° N
USA 238 DEB 3.5 05:00:10 31° SW 05:03:33 79° NW 05:10:30 10° NE
USA 238 3.5 05:00:14 31° SW 05:03:38 79° NW 05:10:36 10° NE
Cosmos 1151 Rocket 3.1 05:01:35 30° N 05:03:43 79° E 05:08:06 10° SSE
Cosmos 2344 3.6 05:03:34 37° W 05:06:30 58° NW 05:14:32 10° NE
Cosmos 1766 Rocket 4.1 05:02:43 10° S 05:06:58 58° E 05:11:14 10° NNE
USA 215 3.2 05:03:28 10° SE 05:10:00 75° SW 05:13:03 35° WNW
Kosmos-917 3.7 05:12:30 63° NW 05:12:30 63° NW 05:17:26 10° NE
Meteor 1-31 Rocket 2.8 05:09:53 10° NNE 05:13:48 78° ESE 05:17:42 10° S
Cosmos 2279 Rocket 3.9 05:08:04 10° N 05:14:18 86° E 05:20:29 10° S
Cosmos 2297 Rocket 4.4 05:10:38 10° N 05:14:19 17° NE 05:17:59 10° ENE
Cosmos 1328 Rocket 3.6 05:12:41 14° N 05:16:24 76° E 05:20:45 10° SSE
SJ-12 3.8 05:15:05 10° N 05:19:14 69° WNW 05:23:20 10° SSW
FALCON 9 DEB 2.9 05:21:07 80° NW 05:21:11 81° NNW 05:24:35 10° ENE
Cosmos 2369 Rocket 2.1 05:15:46 10° SSW 05:21:21 89° WNW 05:27:00 10° NNE
Cosmos 1862 3.3 05:19:17 10° S 05:23:13 82° E 05:27:12 10° NNE
COSMO-SKYMED 1 2.6 05:20:17 10° S 05:24:30 52° W 05:25:48 38° NW
H-2A R/B 2.7 05:23:34 10° N 05:27:12 53° WNW 05:30:50 10° SSW
Cosmos 1634 Rocket 4.1 05:23:14 10° NNW 05:29:17 50° W 05:35:14 10° SSW
CZ-4B R/B 3.8 05:33:06 10° NNE 05:36:33 43° E 05:39:58 10° S
Tsikada Rocket 4.4 05:32:58 10° SW 05:38:40 37° WNW 05:44:27 10° N
CZ-4B R/B 3.5 05:37:44 10° SE 05:40:32 25° ENE 05:43:19 10° N
YAOGAN 6 4.3 05:38:54 10° N 05:40:14 19° NNW 05:40:14 19° NNW
Cosmos 1408 Rocket 3.9 05:38:05 10° S 05:42:20 64° E 05:46:37 10° NNE
Cosmos 1656 Rocket 3.5 05:39:37 10° SSW 05:45:01 81° WNW 05:50:31 10° NNE
CZ-4C R/B 3.0 05:42:27 10° S 05:45:27 43° W 05:46:01 39° WNW
Cosmos 1503 Rocket 4.1 05:40:14 10° SSW 05:45:31 84° ESE 05:50:53 10° NNE
DMSP B5D2-2 4.0 05:40:42 10° SSE 05:45:55 86° WSW 05:51:10 10° NNW
Cosmos 2227 Rocket 4.2 05:45:41 10° N 05:49:53 21° NE 05:54:03 10° E
CZ-2C R/B 3.2 05:45:01 10° SSW 05:50:04 37° W 05:54:54 11° NNW
Cosmos 1943 Rocket 2.9 05:48:15 21° W 05:50:55 31° NW 05:55:57 10° NNE
Cosmos 1486 Rocket 4.1 05:48:02 10° SW 05:53:14 54° WNW 05:58:26 10° NNE
Cosmos 1515 Rocket 3.4 05:52:20 10° NNW 05:56:44 76° W 06:01:03 10° S
SL-8 R/B 4.1 05:54:22 22° W 05:57:17 53° SSW 06:01:55 10° SE
FALCON 9 DEB 3.4 05:56:51 31° NW 05:57:38 38° N 06:00:23 10° ENE
Meteor 2-15 4.4 05:51:56 10° NNW 05:57:58 68° W 06:03:57 10° S
Cosmos 2180 Rocket 4.5 05:53:30 10° NNW 05:59:34 59° W 06:05:33 10° S
Meteor 1-27 Rocket 3.7 05:54:03 10° NNW 05:59:42 89° E 06:05:26 10° S
COSMOS 2487 3.7 06:00:34 10° N 06:03:44 37° ENE 06:06:52 10° SE
Cosmos 773 Rocket 3.9 05:58:53 10° NNW 06:04:08 74° WSW 06:09:18 10° SSE
FALCON 9 DEB 3.5 06:03:16 25° NW 06:04:17 34° N 06:06:57 10° ENE
FALCON 9 DEB 3.6 06:05:16 24° NW 06:06:22 34° N 06:09:01 10° ENE
SJ 16-02 2.2 06:02:35 10° S 06:06:51 53° ESE 06:11:08 10° NNE
NOAA 11 4.2 06:02:39 10° N 06:08:05 66° WNW 06:13:31 10° SSW
CENTAUR R/B 3.2 06:03:21 15° W 06:08:13 39° NNW 06:15:16 10° NE
Alouette 2 Rocket 3.4 06:06:10 10° N 06:10:12 74° ENE 06:13:44 10° SSE
NOAA 12 4.1 06:07:58 10° NNE 06:13:18 88° WNW 06:18:33 10° SSW
Meteor 2-19 Rocket 4.4 06:07:21 10° SSW 06:13:24 76° W 06:19:29 10° N
Envisat 3.8 06:09:48 10° N 06:14:06 29° WNW 06:18:24 10° WSW
Cosmos 1340 Rocket 3.1 06:11:11 10° S 06:15:07 72° E 06:19:07 10° NNE
Cosmos 2278 Rocket 4.2 06:16:10 10° NNW 06:17:09 10° NNW 06:18:09 10° NNW
SL-27 R/B 2.6 06:14:04 11° NNW 06:17:24 55° WSW 06:20:53 10° S
Cosmos 1500 Rocket 3.6 06:14:06 10° S 06:18:33 88° E 06:23:04 10° N
NOSS 3-2 (A) 4.4 06:15:14 14° WNW 06:19:43 31° NNW 06:25:50 10° NE
Cosmos 1939 Rocket 2.7 06:15:54 10° NNE 06:19:52 82° WNW 06:23:46 10° SSW
FALCON 9 DEB 3.5 06:21:30 17° WNW 06:23:21 35° N 06:26:04 10° ENE
Cosmos 2098 Rocket 4.2 06:20:17 10° WSW 06:23:35 23° WNW 06:27:31 10° NNW
NOSS 3-2 (C) 4.1 06:21:25 10° W 06:26:53 37° NNW 06:33:14 10° NE
Cosmos 1805 Rocket 3.9 06:25:50 10° S 06:30:12 69° E 06:34:34 10° NNE
Okean O Rocket 3.9 06:26:21 10° NE 06:30:13 28° E 06:34:02 10° SSE
Sich 1 3.8 06:27:51 10° S 06:32:02 57° E 06:36:15 10° NNE
H-2A R/B 2.5 06:28:37 10° S 06:32:40 42° W 06:36:50 10° NNW
Cosmos 2026 Rocket 4.4 06:26:41 10° S 06:33:00 73° E 06:39:17 10° NNE
Meteor 1-25 Rocket 4.5 06:28:55 10° S 06:34:32 77° E 06:40:07 10° NNE
ATLAS 3B R/B 3.3 06:28:35 10° SSW 06:34:59 61° ESE 06:41:44 10° NE
ADEOS 4.2 06:33:33 10° N 06:38:15 34° WNW 06:42:55 10° SW
Cosmos 1174 3.7 06:35:23 10° SSW 06:38:19 62° ESE 06:41:26 10° NE
Cosmos 1500 4.0 06:34:58 10° S 06:38:41 55° E 06:42:26 10° NNE
ATLAS 5 CENTAUR R/B 1.9 06:34:59 10° SSW 06:38:47 64° SE 06:43:07 10° NE
Cosmos 158 Rocket 4.0 06:34:25 10° NNW 06:39:31 80° WSW 06:44:44 10° SSE
Cosmos 1515 3.9 06:41:30 10° NNW 06:45:12 52° W 06:48:54 10° S
Cosmos 1354 Rocket 4.4 06:40:52 10° SW 06:45:50 41° WNW 06:50:53 10° NNE
Okean 1 3.3 06:42:13 10° N 06:46:12 87° E 06:50:09 10° S
CZ-2C R/B 3.4 06:42:14 10° N 06:46:40 38° WNW 06:51:16 10° SW
Meteor 1-18 Rocket 4.5 06:46:29 10° N 06:52:25 81° ENE 06:58:11 10° SSE
